Regional Weather Roundup
Issued by NWS

Home | Current Version | Previous Version | Text Only | Print | Product List | Glossary Off
Versions: 1 2 3 4 5 6 7 8 9 10 11 12 13 14 15 16 17 18 19 20 21 22 23 24 25 26 27 28 29 30 31 32 33 34 35 36 37 38 39 40 41 42 43 44 45 46 47 48 49 50

797
ASUS44 KMEG 121300
RWRTN
TENNESSEE HOURLY STATE WEATHER ROUNDUP
NATIONAL WEATHER SERVICE MEMPHIS TN
700 AM CST FRI FEB 12 2016

TNZ002-004-019-021-049-052-054-088>092-121400-
WEST TENNESSEE

CITY           SKY/WX    TMP DP  RH WIND       PRES   REMARKS
MEMPHIS INTL   PTCLDY    33  24  69 N5        30.19R WCI  29
NWS MEMPHIS      N/A     29 N/A N/A MISG        N/A
JACKSON        CLEAR     30  23  75 CALM      30.19R
DYERSBURG      CLEAR     28  21  74 CALM      30.22R
PARIS          CLOUDY    28  19  69 CALM      30.18R
LEXINGTON      PTCLDY    28  21  74 CALM      30.16R
$$

TNZ008-025-027-028-033-062-065-066-121400-
NORTH MIDDLE TENNESSEE

CITY           SKY/WX    TMP DP  RH WIND       PRES   REMARKS
NASHVILLE      CLOUDY    34  22  61 CALM      30.19S
CLARKSVILLE    CLOUDY    29  24  82 N5        30.20R WCI  24
CROSSVILLE     LGT SNOW  30  27  88 CALM      30.12S FOG
$$

TNZ061-075-076-078-094-096-097-121400-
SOUTH MIDDLE TENNESSEE

CITY           SKY/WX    TMP DP  RH WIND       PRES   REMARKS
WINCHESTER     PTCLDY    34  28  80 CALM      30.15R
$$

TNZ017-018-042-046-047-121400-
NORTHEAST TENNESSEE

CITY           SKY/WX    TMP DP  RH WIND       PRES   REMARKS
TRI CITIES     CLOUDY    29  17  61 CALM      30.13R
$$

TNZ012-013-036-069-073-074-121400-
CENTRAL EAST TENNESSEE

CITY           SKY/WX    TMP DP  RH WIND       PRES   REMARKS
KNOXVILLE      SNOW      29  27  92 CALM      30.15F VSB 1/2
OAK RIDGE      SNOW      29  26  89 CALM      30.18S VSB 1/2
GATLINBURG     CLOUDY    27  25  93 CALM      30.15F
$$

TNZ083-085-099-121400-
SOUTHEAST TENNESSEE

CITY           SKY/WX    TMP DP  RH WIND       PRES   REMARKS
CHATTANOOGA    CLOUDY    35  24  64 NE7       30.17F WCI  29
$$

SKY/WX REPORTED AS FAIR MEANS FEW OR NO CLOUDS BELOW
12 THOUSAND FEET.





USA.gov is the U.S. government's official web portal to all federal, state and local government web resources and services.